Tracking 22458 objects as of 2-Mar-2021
HD Live streaming from Space Station
objects crossing your sky now

CZ-4 DEB

Track CZ-4 DEB now!
10-day predictions


NORAD ID: 27482
Int'l Code: 1990-081CU
Perigee: 859.8 km
Apogee: 875.1 km
Inclination: 98.7 °
Period: 102.1 minutes
Semi major axis: 7238 km
RCS: 0.0048 m2 (small)
Launch date: September 3, 1990
Source: People's Republic of China (PRC)
Launch site: Taiyaun Space Center, China (TSC)

Note: This is SATELLITE DEBRIS
aabbcc
Your satellite tracking list
Your tracking list is empty




NASA's NSSDC Master Catalog

Two Line Element Set (TLE):
1 27482U 90081CU  21060.48541655  .00000007  00000-0  28074-4 0  9990
2 27482  98.7047  60.9483 0010550  26.9798 125.6209 14.09717776 32348
Source of the keplerian elements: AFSPC